Location: Unspecified
(0.0000°N, 0.0000°E)
Time: 11:14:43
(UTC+00:00)

deb Explorer IX - Pass Details

Date: 25 November 2019
Orbit: 546 x 1104 km, 38.8° (Epoch: 14 December)

Event Time Altitude Azimuth Distance (km) Brightness Sun altitude
Rises 07:13:27 0° 301° (WNW) 2,947 ? 20.2°
Reaches altitude 10° 07:15:58 10° 296° (WNW) 1,966 ? 20.8°
Maximum altitude 07:20:15 46° 222° (SW) 770 ? 21.8°
Drops below altitude 10° 07:24:13 10° 148° (SSE) 1,818 ? 22.7°
Sets 07:26:28 0° 141° (SE) 2,700 ? 23.2°
